Regional Weather Roundup
Issued by NWS

Home | Current Version | Previous Version | Graphics & Text | Print | Product List | Glossary On
Versions: 1 2 3 4 5 6 7 8 9 10 11 12 13 14 15 16 17 18 19 20 21 22 23 24 25 26 27 28 29 30 31 32 33 34 35 36 37 38 39 40 41 42 43 44 45 46 47 48 49 50
000
ASUS45 KCYS 260110
RWRWY

WYOMING REGIONAL WEATHER ROUNDUP
NATIONAL WEATHER SERVICE CHEYENNE WY
600 PM MST TUE NOV 25 2014

NOTE:  "FAIR" INDICATES FEW OR NO CLOUDS BELOW 12,000 FEET
WITH NO SIGNIFICANT WEATHER AND/OR OBSTRUCTIONS TO VISIBILITY.

WYZ001-260200-
YELLOWSTONE NATIONAL PARK

CITY           SKY/WX    TMP DP  RH WIND       PRES   REMARKS
LK YELLOWSTONE   N/A     30  26  85 VRB7      30.03S WCI  23
W YELLOWSTONE  NOT AVBL

$$
WYZ002>013-054>058-071-098>099-260200-
NORTHERN WYOMING

CITY           SKY/WX    TMP DP  RH WIND       PRES   REMARKS
JACKSON        LGT SNOW  34  32  93 S7        30.04R WCI  28
CODY           CLOUDY    27  25  93 N15G22    30.06R WCI  15
GREYBULL       FLURRIES  31  26  82 NW25G31   30.05R WCI  17
WORLAND        LGT SNOW  32  31  96 W8        30.06R VSB 1   WCI  25
SHERIDAN       LGT SNOW  30  26  85 W24       30.06R FOG     WCI  16
BUFFALO        LGT SNOW  28  23  81 NW28G39   30.02R WCI  13
GILLETTE       LGT SNOW  28  25  88 NW20      29.98R FOG     WCI  15
HULETT           N/A    N/A N/A N/A MISG        N/A
NEWCASTLE      LGT SNOW  30  30 100 NW21G28   29.94R VSB 1   WCI  17

$$
WYZ014>020-022>026-101>103-260200-
CENTRAL WYOMING

CITY           SKY/WX    TMP DP  RH WIND       PRES   REMARKS
BIG PINEY      CLOUDY   N/A N/A N/A SE3       30.07S
PINEDALE       LGT SNOW  30  30 100 CALM      30.07F
DUBOIS         LGT SNOW  32  30  93 NW10      29.96S WCI  24
LANDER         CLOUDY    33  22  63 NE8       29.98R WCI  26
RIVERTON       PTCLDY    32  24  72 NE12      29.99R WCI  23
CASPER         CLOUDY    30  25  81 E5        30.01R WCI  25
DOUGLAS        LGT SNOW N/A N/A N/A NW12      29.99R

$$
WYZ021-027>030-104>119-260200-
SOUTHERN WYOMING

CITY           SKY/WX    TMP DP  RH WIND       PRES   REMARKS
EVANSTON       MIX PCPN  32  30  92 SW28G36   30.22F WCI  18
FORT BRIDGER   CLOUDY    35  32  90 W28G35    30.20S WCI  22
ROCK SPRINGS   CLOUDY    34  27  75 W31G38    30.09S WCI  20
DIXON          CLOUDY    36  24  63 SW14G26   30.14R WCI  27
RAWLINS        PTCLDY    34  27  75 W37G46    29.98R WCI  19
SARATOGA       MOCLDY    34  27  75 W31G38    30.02R WCI  20
LARAMIE        MOCLDY    33  24  69 W24G35    29.91R WCI  20
CHEYENNE       CLOUDY    40  24  53 NW22G41   29.88R WCI  30
TORRINGTON     CLOUDY    34  30  85 NW12      29.94R WCI  25
PINE BLUFFS    FLURRIES  32  32 100 N12       29.92R WCI  23

$$


USA.gov is the U.S. government's official web portal to all federal, state and local government web resources and services.